Wind_Speed
64 53 44 35 36 40 47 46 44 39 41 42 44 45 45 44 44 43 44 41 37 37 39 39 40 37 35 35 36 37 37 36 35 35 35 38 40 38 39 42 44 45 46
54 41 26 29 33 35 41 46 44 37 41 41 43 46 49 49 49 44 42 43 45 42 43 43 39 35 33 35 38 39 38 38 37 38 35 34 36 42 42 41 43 44 47
37 43 30 31 43 42 44 41 39 40 42 45 42 42 46 43 46 47 43 44 46 49 49 48 45 43 46 47 36 37 37 36 33 36 35 32 36 38 44 45 45 45 48
46 39 36 36 46 48 42 40 42 45 43 49 49 43 49 50 53 55 47 49 47 46 47 45 47 48 50 48 41 38 37 34 35 34 33 34 34 37 40 45 50 50 48
44 29 34 45 45 43 57 40 50 46 48 51 48 45 53 52 57 51 49 55 51 50 49 48 50 50 52 48 46 47 43 42 45 41 40 38 38 34 39 46 47 51 51
41 46 40 61 51 43 69 58 60 69 61 54 58 48 54 53 59 58 62 59 55 52 50 49 53 54 54 48 52 50 45 41 46 52 50 46 44 43 41 42 47 48 52
59 46 47 52 67 63 60 60 61 61 71 61 75 58 57 53 61 66 67 65 62 56 51 48 54 56 55 54 49 54 46 46 50 53 50 51 51 51 46 42 41 46 50
58 56 54 58 62 75 64 59 46 52 47 64 67 64 67 55 66 69 70 66 63 55 49 47 57 54 58 56 51 50 48 48 49 54 55 59 57 51 50 41 42 40 45
62 66 68 63 63 80 70 60 58 60 62 59 71 72 68 68 75 76 72 66 60 55 48 51 56 61 58 56 54 51 51 53 54 56 58 60 61 54 47 48 46 47 52
93 87 67 62 63 74 76 66 59 61 64 61 65 67 68 76 68 68 75 76 61 57 53 53 57 65 60 53 57 55 55 58 58 59 57 57 60 55 51 56 51 56 55
100 101 71 63 61 70 65 69 62 57 63 71 69 70 76 65 70 74 73 71 65 63 58 55 58 62 61 56 55 57 59 61 63 62 61 63 60 53 55 52 54 54 59
98 99 70 68 62 73 72 71 60 67 65 63 70 64 62 65 71 65 69 69 65 60 60 59 60 64 59 58 58 59 62 63 63 65 63 62 65 69 61 57 58 61 60
93 76 70 71 64 78 82 82 75 72 71 71 66 72 73 68 69 68 66 70 68 69 69 63 61 62 60 59 62 63 65 65 67 70 67 65 67 68 67 65 66 62 59
85 80 66 71 71 84 87 96 78 83 80 73 76 79 74 74 75 73 67 74 76 74 67 65 64 63 62 61 61 64 66 70 71 71 69 69 67 67 68 70 70 68 68
88 88 84 73 86 87 97 93 88 90 81 80 79 78 74 68 67 69 59 72 81 67 65 67 64 64 60 60 59 61 65 70 70 72 72 71 68 66 68 74 75 78 71
92 95 92 82 92 91 100 106 106 98 90 84 85 84 84 78 73 64 73 76 76 68 68 68 70 70 60 61 61 64 69 68 69 69 69 69 69 71 74 82 89 89 64
90 90 88 86 84 102 99 112 115 109 101 90 90 90 81 81 72 71 68 60 68 70 74 72 72 65 66 68 67 70 70 68 69 67 65 69 74 79 82 87 92 82 75
83 81 85 84 84 97 104 117 123 117 114 99 96 99 86 79 84 79 79 73 63 63 62 67 68 64 63 67 68 67 71 74 76 72 68 72 78 88 93 95 92 80 81
84 82 82 85 88 95 111 116 125 128 124 109 108 103 100 88 89 85 85 75 66 67 70 69 69 64 63 68 66 71 73 76 74 71 75 79 87 88 86 85 84 84 87
75 77 79 84 89 84 109 119 125 136 132 126 113 110 109 96 88 89 88 90 79 78 78 64 66 73 72 74 76 80 82 78 80 81 85 89 77 82 84 88 90 95 90
66 69 71 76 85 91 89 116 124 135 139 137 127 119 111 112 102 96 91 90 85 88 86 78 74 78 82 82 83 80 84 84 83 83 84 74 82 89 88 96 96 97 94
59 63 66 68 71 81 91 101 121 130 145 144 138 131 121 115 116 109 101 100 98 94 93 87 79 83 83 87 89 83 83 79 78 79 80 80 82 86 89 94 99 101 105
55 57 60 63 67 72 79 90 106 123 139 146 148 139 133 124 121 120 117 110 106 102 100 96 94 85 84 85 81 77 79 81 80 79 81 83 87 93 97 100 104 106 106
50 52 53 56 59 65 72 77 89 105 124 139 151 151 142 136 129 126 124 120 118 114 112 110 100 97 94 89 82 82 84 84 89 89 89 90 95 99 101 104 109 107 108
43 45 47 50 52 58 64 70 76 86 105 120 137 150 150 145 136 135 131 129 126 123 120 117 112 107 97 95 96 93 95 94 96 99 100 96 98 99 102 107 111 109 113
38 41 42 43 46 47 54 60 66 74 86 100 115 129 140 149 148 145 147 136 134 134 128 124 121 115 111 108 101 103 103 105 104 106 102 103 103 104 106 112 110 114 115
Wind_Direction
299 287 294 288 293 302 293 283 268 262 271 268 277 283 287 285 280 289 285 279 292 293 302 308 312 303 291 283 279 280 280 282 282 288 279 268 263 263 266 269 271 267 266
312 300 301 307 294 283 289 279 275 268 270 273 276 280 286 289 280 280 283 289 288 290 298 304 306 307 307 304 288 281 281 285 281 284 283 279 279 269 265 268 269 266 265
319 306 292 289 298 286 288 279 269 270 269 271 273 280 286 289 292 285 281 286 285 285 291 297 300 298 302 302 293 285 283 280 278 275 272 274 277 275 266 261 264 264 262
310 302 275 274 277 276 279 273 266 269 269 272 271 273 277 282 286 288 281 284 283 284 287 291 296 293 296 299 294 295 289 286 286 285 284 284 272 277 273 266 259 259 261
297 276 257 250 257 281 268 274 277 273 272 270 274 269 275 273 281 281 274 288 283 284 282 285 293 285 290 297 295 299 291 296 296 294 295 293 288 290 286 272 261 256 254
280 265 265 244 238 227 250 246 263 272 280 267 279 269 274 271 277 281 281 280 282 283 279 282 289 283 281 288 291 299 297 291 292 291 294 293 288 296 294 283 267 258 255
291 256 253 243 243 237 246 251 239 250 258 276 286 264 269 276 271 277 280 278 280 279 280 282 289 286 280 281 285 295 292 287 287 291 292 294 297 298 296 295 278 266 260
277 264 264 251 238 235 238 226 226 230 231 261 261 275 272 270 271 274 275 277 277 274 275 278 288 283 282 276 280 287 289 288 289 292 294 294 297 298 295 289 291 278 277
272 277 265 262 235 232 228 235 250 238 238 252 260 266 266 271 269 272 275 275 276 273 276 279 283 284 277 275 279 279 281 283 283 284 291 294 298 298 294 296 282 282 283
282 288 269 254 228 230 221 224 232 237 238 240 245 255 265 260 268 272 274 275 276 275 278 278 281 284 274 277 277 277 276 277 283 286 290 299 297 298 292 290 284 276 274
279 284 265 241 231 224 221 221 230 235 237 233 240 244 256 255 268 267 271 274 276 278 278 276 279 276 274 274 277 274 273 276 281 287 288 290 295 289 294 284 289 279 278
279 283 252 247 232 221 216 220 227 234 234 235 236 239 249 257 264 262 266 274 273 272 274 270 275 273 274 272 273 272 273 277 281 288 290 290 294 296 298 294 289 285 285
275 266 248 242 227 221 215 225 224 225 225 231 236 232 247 255 259 263 266 266 268 269 270 272 271 272 270 270 275 274 275 277 279 281 287 288 293 295 297 293 294 293 289
264 271 263 237 226 217 217 219 222 222 222 234 236 233 243 251 255 261 262 264 265 265 269 272 268 269 268 272 272 272 275 277 279 283 286 288 291 292 295 297 297 297 296
271 273 270 247 229 220 219 223 217 217 225 227 229 235 239 244 248 254 250 260 267 266 263 266 265 268 267 271 269 274 275 278 278 280 285 289 288 291 292 299 300 301 296
267 265 264 263 227 224 221 219 217 217 220 225 228 228 235 241 244 236 248 255 258 258 263 265 265 269 265 268 269 275 276 279 279 281 282 287 287 290 292 299 302 308 300
261 259 256 253 232 226 223 220 217 217 219 219 226 226 233 233 233 237 243 242 255 259 258 260 266 264 264 267 270 276 275 273 276 278 283 285 288 294 297 297 304 308 308
258 252 251 243 237 226 224 219 218 217 215 217 220 225 223 226 229 236 239 238 248 254 252 258 262 261 264 268 271 271 266 272 276 280 280 281 290 296 300 304 308 311 311
255 250 245 243 237 224 223 221 218 217 217 217 220 222 220 223 227 233 233 238 240 238 248 252 252 260 263 266 263 266 271 275 275 280 279 284 291 300 304 306 309 305 308
257 251 245 240 239 232 223 221 220 218 217 216 219 221 221 221 223 227 230 237 238 237 243 244 251 252 255 263 262 264 273 274 278 277 286 293 299 300 302 303 303 306 305
256 252 247 241 238 237 227 224 220 220 217 216 218 221 221 223 221 225 228 233 234 236 239 244 247 251 258 261 262 267 269 272 275 280 288 292 291 295 299 299 301 301 300
254 252 249 244 240 236 232 225 225 222 219 218 218 221 220 221 224 224 228 231 235 234 239 246 251 254 254 255 260 266 269 271 276 281 287 289 287 292 294 294 296 296 296
257 253 249 244 241 237 231 228 224 226 224 221 220 221 221 222 223 226 228 229 233 235 240 242 245 248 254 256 261 263 264 269 274 277 280 281 284 287 290 291 293 294 296
258 256 251 248 243 239 237 233 225 227 226 225 223 223 222 223 223 227 228 230 231 234 237 240 242 247 248 252 257 260 264 267 272 274 276 280 283 286 289 291 293 294 297
260 258 254 250 245 241 238 236 233 228 227 227 224 226 226 224 224 226 229 230 232 235 237 240 243 244 248 253 255 257 262 265 269 275 278 283 285 287 290 291 291 292 294
264 263 259 253 249 242 239 237 234 231 227 228 230 227 228 227 225 228 231 231 235 236 238 241 244 246 249 253 257 259 263 267 272 276 279 282 283 286 286 288 289 289 294
Height
10678 10670 10671 10668 10667 10666 10662 10658 10659 10662 10664 10665 10666 10668 10669 10670 10672 10674 10675 10676 10678 10678 10676 10675 10674 10672 10672 10672 10671 10671 10672 10672 10672 10671 10671 10671 10672 10673 10674 10676 10677 10678 10679
10667 10665 10661 10660 10660 10661 10658 10653 10653 10652 10655 10655 10657 10659 10661 10663 10662 10664 10665 10666 10667 10669 10667 10667 10668 10668 10666 10664 10663 10663 10663 10664 10664 10665 10664 10663 10663 10663 10664 10666 10667 10668 10670
10652 10659 10654 10654 10653 10652 10650 10646 10645 10644 10645 10646 10646 10647 10650 10653 10655 10656 10656 10655 10657 10659 10659 10658 10658 10658 10658 10657 10655 10654 10653 10654 10654 10655 10655 10654 10654 10653 10653 10654 10655 10658 10658
10639 10648 10643 10640 10643 10645 10644 10639 10637 10635 10635 10635 10636 10636 10638 10641 10645 10647 10647 10645 10646 10648 10648 10648 10648 10647 10647 10647 10646 10645 10643 10642 10643 10643 10644 10644 10644 10644 10643 10643 10644 10646 10646
10626 10630 10629 10622 10631 10632 10635 10633 10633 10628 10625 10624 10624 10624 10626 10629 10632 10637 10636 10635 10634 10636 10638 10638 10637 10637 10638 10638 10638 10637 10634 10633 10633 10633 10633 10633 10634 10632 10632 10632 10631 10632 10632
10612 10608 10608 10607 10612 10603 10616 10624 10615 10617 10614 10615 10614 10613 10614 10614 10618 10623 10624 10623 10623 10623 10625 10626 10624 10625 10627 10627 10627 10627 10627 10624 10623 10623 10623 10623 10622 10621 10619 10618 10617 10618 10619
10588 10593 10588 10592 10591 10596 10597 10603 10604 10607 10603 10603 10599 10601 10601 10601 10604 10608 10610 10610 10611 10610 10613 10614 10612 10612 10613 10615 10614 10615 10615 10614 10613 10612 10612 10612 10611 10610 10608 10608 10605 10604 10604
10566 10570 10571 10571 10573 10577 10583 10590 10590 10592 10593 10594 10589 10588 10588 10589 10592 10593 10595 10595 10596 10597 10599 10601 10601 10600 10600 10601 10602 10602 10601 10600 10599 10599 10599 10599 10599 10598 10597 10596 10595 10593 10593
10545 10548 10549 10547 10554 10557 10563 10575 10578 10579 10582 10581 10579 10573 10575 10577 10576 10579 10580 10580 10582 10584 10587 10589 10588 10589 10588 10589 10588 10589 10589 10588 10588 10588 10586 10586 10587 10586 10584 10582 10582 10582 10580
10522 10521 10524 10525 10529 10535 10544 10549 10553 10560 10566 10568 10563 10564 10561 10565 10562 10561 10563 10565 10567 10569 10572 10575 10575 10574 10575 10576 10576 10575 10576 10577 10576 10575 10574 10574 10573 10573 10572 10570 10569 10568 10567
10495 10496 10499 10501 10508 10514 10520 10531 10538 10542 10548 10550 10548 10549 10549 10549 10546 10549 10547 10547 10552 10555 10559 10562 10562 10561 10562 10564 10564 10563 10564 10564 10562 10561 10561 10559 10561 10560 10560 10558 10558 10556 10556
10468 10471 10475 10476 10487 10495 10502 10512 10517 10523 10529 10530 10532 10536 10531 10533 10532 10529 10529 10532 10538 10540 10545 10547 10546 10546 10551 10551 10550 10551 10550 10552 10550 10549 10547 10544 10543 10545 10546 10545 10545 10542 10540
10441 10447 10450 10455 10464 10473 10478 10476 10490 10500 10508 10509 10515 10519 10520 10517 10517 10517 10515 10520 10525 10526 10530 10532 10531 10533 10537 10537 10537 10538 10537 10537 10536 10535 10534 10531 10528 10529 10529 10530 10529 10527 10524
10416 10415 10420 10429 10435 10442 10448 10452 10464 10476 10482 10491 10499 10503 10503 10504 10503 10507 10505 10500 10506 10511 10513 10515 10516 10519 10522 10525 10524 10524 10523 10522 10521 10520 10518 10517 10515 10514 10514 10512 10511 10512 10509
10385 10384 10389 10401 10406 10414 10419 10430 10446 10450 10458 10468 10477 10483 10488 10487 10493 10495 10486 10482 10489 10496 10496 10498 10501 10504 10508 10510 10510 10510 10509 10507 10507 10503 10502 10500 10499 10497 10496 10496 10494 10492 10489
10349 10355 10359 10365 10377 10383 10394 10402 10412 10424 10437 10446 10453 10461 10466 10474 10473 10480 10476 10475 10474 10477 10480 10480 10484 10490 10494 10494 10495 10494 10493 10492 10491 10490 10487 10485 10482 10480 10479 10477 10476 10473 10468
10308 10316 10324 10333 10347 10354 10365 10372 10383 10395 10410 10418 10426 10436 10443 10451 10453 10456 10458 10462 10459 10462 10464 10464 10467 10474 10478 10476 10478 10478 10476 10477 10474 10473 10473 10470 10465 10463 10462 10459 10457 10452 10448
10270 10280 10286 10298 10308 10323 10329 10340 10351 10364 10378 10389 10400 10409 10420 10424 10431 10435 10442 10445 10445 10444 10447 10449 10452 10456 10458 10460 10462 10461 10459 10458 10458 10459 10457 10452 10449 10447 10444 10438 10434 10430 10428
10233 10243 10252 10260 10273 10282 10294 10309 10323 10333 10350 10363 10372 10381 10395 10399 10406 10415 10422 10423 10428 10429 10431 10434 10437 10438 10441 10444 10444 10443 10441 10442 10440 10441 10440 10438 10432 10424 10422 10419 10417 10414 10411
10200 10209 10219 10228 10238 10251 10263 10273 10290 10302 10319 10334 10346 10356 10365 10378 10387 10392 10399 10405 10410 10412 10413 10417 10419 10422 10425 10428 10426 10425 10427 10425 10423 10421 10423 10417 10411 10407 10404 10401 10402 10397 10393
10174 10181 10190 10200 10210 10220 10235 10246 10260 10272 10288 10302 10317 10326 10341 10352 10358 10368 10377 10386 10391 10394 10394 10399 10403 10406 10409 10411 10408 10411 10411 10409 10409 10407 10405 10404 10398 10394 10392 10385 10385 10383 10377
10153 10157 10164 10174 10185 10195 10206 10220 10232 10242 10257 10272 10289 10299 10310 10323 10334 10346 10355 10364 10371 10375 10377 10383 10387 10390 10392 10393 10393 10397 10396 10394 10398 10395 10395 10391 10386 10382 10377 10373 10371 10367 10362
10133 10137 10142 10150 10158 10167 10177 10191 10202 10213 10229 10246 10259 10271 10282 10300 10311 10320 10331 10339 10349 10354 10360 10364 10370 10375 10376 10378 10380 10383 10381 10381 10382 10382 10381 10377 10374 10368 10364 10361 10357 10350 10346
10116 10119 10124 10128 10136 10143 10151 10161 10173 10183 10198 10215 10231 10244 10260 10275 10289 10298 10309 10315 10324 10332 10339 10346 10355 10358 10358 10363 10368 10368 10367 10366 10366 10365 10364 10364 10359 10353 10349 10344 10340 10335 10329
10103 10104 10106 10110 10115 10121 10127 10135 10146 10159 10170 10184 10201 10218 10233 10249 10266 10271 10281 10293 10299 10308 10314 10324 10332 10339 10346 10350 10351 10351 10349 10350 10350 10351 10350 10346 10342 10336 10333 10328 10322 10318 10310
10090 10090 10091 10094 10098 10103 10107 10115 10126 10135 10145 10157 10174 10187 10208 10222 10239 10244 10250 10274 10278 10285 10297 10304 10307 10322 10328 10329 10333 10332 10334 10332 10336 10336 10331 10330 10325 10322 10317 10311 10306 10297 10291